Printer-friendly version

IAU Minor Planet Center

Minor Planet Center

MPEC 2000-W48: 2000 CF105

The following Minor Planet Electronic Circular may be linked-to from your own Web pages, but must not otherwise be redistributed electronically.


Read MPEC 2000-W47 Read MPEC 2000-W49


M.P.E.C. 2000-W48                                Issued 2000 Nov. 27, 22:37 UT

     The Minor Planet Electronic Circulars contain information on unusual
         minor planets and routine data on comets.  They are published
   on behalf of Commission 20 of the International Astronomical Union by the
          Minor Planet Center, Smithsonian Astrophysical Observatory,
                          Cambridge, MA 02138, U.S.A.

             Prepared using the Tamkin Foundation Computer Network

                              MPC@CFA.HARVARD.EDU
          URL http://cfa-www.harvard.edu/iau/mpc.html  ISSN 1523-6714

                                  2000 CF105

                           Revision to MPEC 2000-F02

Observations:
     K00CA5F 9C2000 11 26.46873 08 21 51.62 +19 56 48.7          23.4 R      695
     K00CA5F 9C2000 11 26.54215 08 21 51.45 +19 56 49.5          23.3 R      695
     K00CA5F 9C2000 11 27.50450 08 21 49.26 +19 56 57.4          23.0 R      695

Observer details:
695 Kitt Peak.  Observer J. W. Parker.  2.1-m reflector + CCD.

First and last observations above in comparison with prediction:
Residuals in seconds of arc (or two decimals in degrees) and reference
001126 695 0.03+ 0.01-    001127 695 0.03+ 0.01-    MPC 39601

Orbital elements:
2000 CF105
Eccentricity assumed
Epoch 2000 Sept. 13.0 TT = JDT 2451800.5                Marsden
M 312.40894              (2000.0)            P               Q
n   0.00337230     Peri.  118.38197     -0.99604177     -0.08855535
a  44.0404757      Node    56.53849     +0.07799855     -0.91213155
e   0.0637362      Incl.    0.52641     +0.04262657     -0.40021742
P 292              H    7.2           G   0.15
Residuals in seconds of arc
000205 695  0.0   0.1-    000301 695  0.5+  0.2+    001127 695  0.0   0.0
000205 695  0.0   0.1-    001126 695  0.0   0.1-
000301 695  0.5-  0.0     001126 695  0.0   0.1+

Ephemeris:
2000 CF105               a,e,i = 44.04, 0.06, 1                  q = 41.234
Date    TT    R. A. (2000) Decl.     Delta      r     Elong.  Phase     V
2000 11 22    08 22.01   +19 56.3   41.786   42.242   116.9     1.2    23.6
2000 12 02    08 21.63   +19 57.6   41.639   42.241   127.1     1.1    23.6
2000 12 12    08 21.11   +19 59.5   41.510   42.240   137.4     0.9    23.6
2000 12 22    08 20.47   +20 01.7   41.403   42.238   147.7     0.7    23.5
2001 01 01    08 19.73   +20 04.2   41.323   42.237   158.1     0.5    23.5
2001 01 11    08 18.93   +20 06.9   41.272   42.236   168.5     0.3    23.5
2001 01 21    08 18.08   +20 09.7   41.250   42.234   178.8     0.0    23.4
2001 01 31    08 17.24   +20 12.4   41.260   42.233   170.8     0.2    23.5
2001 02 10    08 16.42   +20 15.0   41.300   42.232   160.4     0.4    23.5
2001 02 20    08 15.66   +20 17.4   41.370   42.230   150.2     0.7    23.5
2001 03 02    08 14.98   +20 19.5   41.466   42.229   139.9     0.9    23.6
2001 03 12    08 14.43   +20 21.2   41.585   42.228   129.8     1.0    23.6
2001 03 22    08 14.00   +20 22.5   41.723   42.226   119.7     1.2    23.6
2001 04 01    08 13.73   +20 23.2   41.876   42.225   109.8     1.3    23.6
2001 04 11    08 13.62   +20 23.5   42.040   42.224    99.9     1.3    23.6
2001 04 21    08 13.67   +20 23.2   42.208   42.222    90.1     1.4    23.6
2001 05 01    08 13.88   +20 22.4   42.376   42.221    80.5     1.3    23.6
2001 05 11    08 14.25   +20 21.1   42.540   42.220    70.9     1.3    23.7
2001 05 21    08 14.78   +20 19.4   42.694   42.218    61.3     1.2    23.7
2001 05 31    08 15.44   +20 17.2   42.835   42.217    51.9     1.1    23.6
2001 06 10    08 16.22   +20 14.6   42.958   42.216    42.5     0.9    23.6
2001 06 20    08 17.10   +20 11.7   43.061   42.214    33.2     0.8    23.6

Brian G. Marsden             (C) Copyright 2000 MPC           M.P.E.C. 2000-W48

Read MPEC 2000-W47 Read MPEC 2000-W49


Our Web policy. Index to the CBAT/MPC/ICQ pages.


Valid HTML 4.01!